Вернуться в каталог

STARLINK-11427

АктивенСвязьVLEO
NORAD 62063·PAYLOAD·🇺🇸 United States

Запущен Nov 24, 2024 с Vandenberg Space Force Base

Loading…

Ближайшие Пролёты (ближайшие 24 часа)

TLE

СвежийSource: CelesTrak SupGP

Эпоха: Sep 15, 2026, 02:24 UTC

1 62063C 24217G   26258.10048611 -.00060206  00000+0 -49574-3 0  2582
2 62063  53.1574 217.7175 0001269  85.0268 147.4107 15.69748902    17

Отслеживайте STARLINK-11427 в реальном времени с AllMySat

Download on the App Store